Regional Weather Roundup
Issued by NWS

Home | Current Version | Previous Version | Graphics & Text | Print | Product List | Glossary On
Versions: 1 2 3 4 5 6 7 8 9 10 11 12 13 14 15 16 17 18 19 20 21 22 23 24 25 26 27 28 29 30 31 32 33 34 35 36 37 38 39 40 41 42 43 44 45 46 47 48 49 50
000
ASUS43 KBIS 301110
RWRND

NORTH DAKOTA REGIONAL WEATHER ROUNDUP
NATIONAL WEATHER SERVICE BISMARCK ND
600 AM CDT FRI SEP 30 2016

NOTE: "FAIR" INDICATES FEW OR NO CLOUDS BELOW 12,000 FEET WITH NO
SIGNIFICANT WEATHER AND/OR OBSTRUCTIONS TO VISIBILITY.


NDZ001>003-009>011-017-301200-
NORTHWEST NORTH DAKOTA

CITY           SKY/WX    TMP DP  RH WIND       PRES   REMARKS
WILLISTON      LGT RAIN  58  46  64 SE10      30.04S
MINOT          MOCLDY    52  47  83 E13       30.13F
MINOT AFB      CLOUDY    50  47  87 SE9       30.12F
$$

NDZ018>021-031>035-040>046-301200-
SOUTHWEST NORTH DAKOTA

CITY           SKY/WX    TMP DP  RH WIND       PRES   REMARKS
BISMARCK       CLOUDY    53  46  77 SE14      30.19R
DICKINSON      CLOUDY    55  42  61 SE22      30.05F
GARRISON         N/A     53  47  79 SE13G23   30.12F
HETTINGER ARPT CLOUDY    56  42  59 SE6       30.12S
$$

NDZ004>008-012>016-024-026-027-054-301200-
NORTHEAST NORTH DAKOTA

CITY           SKY/WX    TMP DP  RH WIND       PRES   REMARKS
GRAND FORKS    PTCLDY    44  42  93 S5        30.33S
GRND FRKS AFB  CLEAR     42  40  95 S3        30.32F
DEVILS LAKE    CLOUDY    50  47  89 SE13      30.27F
$$

NDZ022-023-025-028>030-036>039-047>053-301200-
SOUTHEAST NORTH DAKOTA

CITY           SKY/WX    TMP DP  RH WIND       PRES   REMARKS
FARGO          CLEAR     51  47  86 SE10      30.33S
JAMESTOWN      PTCLDY    46  44  93 SE9       30.28S
$$




USA.gov is the U.S. government's official web portal to all federal, state and local government web resources and services.